Albuquerque, NM

1:20 AM MDT on August 21, 2017 (GMT -0600)
Albuquerque International Sunport

Weather History for KABQ - May, 2014

Change the Weather History Date:

Wednesday, May 28, 2014

  Actual Average Record
Temperature  
Mean Temperature 78 °F 69 °F  
Max Temperature 92 °F 83 °F 97 °F (1951)
Min Temperature 63 °F 56 °F 38 °F (1916)
Degree Days  
Heating Degree Days 0 1  
Month to date heating degree days 113 69  
Since 1 July heating degree days 3980 4173  
Cooling Degree Days 13 5  
Month to date cooling degree days 71 75  
Year to date cooling degree days 77 82  
Growing Degree Days 27 (Base 50)    
Moisture  
Dew Point 38 °F    
Average Humidity 28    
Maximum Humidity 48    
Minimum Humidity 8    
Precipitation  
Precipitation 0.00 in 0.02 in 0.77 in (1937)
Month to date precipitation 0.60 0.45  
Year to date precipitation 1.01 2.49  
Snow  
Snow 0.00 in - - ()
Month to date snowfall 0.0  
Since 1 July snowfall 6.6  
Snow Depth 0.00 in    
Sea Level Pressure  
Sea Level Pressure 29.86 in    
Wind  
Wind Speed 10 mph (NE)    
Max Wind Speed 31 mph    
Max Gust Speed 38 mph    
Visibility 10 miles    
Events      
T = Trace of Precipitation, MM = Missing Value Source: NWS Daily Summary

Daily Weather History Graph

Daily Weather History Graph

Search for Another Location

Airport or City:

Trip Planner

Search our weather history database for the weather conditions in past years. The results will help you decide how hot, cold, wet, or windy it might be!

Date:

Astronomy

May. 28, 2014 Rise Set
Actual Time 5:55 AM MDT 8:12 PM MDT
Civil Twilight 5:26 AM MDT 8:41 PM MDT
Nautical Twilight 4:50 AM MDT 9:17 PM MDT
Astronomical Twilight 4:11 AM MDT 9:56 PM MDT
Moon 6:00 AM MDT (5/28) 8:15 PM MDT (5/28)
Length of Visible Light 15h 15m
Length of Day
14h 17m
Waning Crescent, 0% of the Moon is Illuminated
May 28
Waning Crescent
May 28
New
Jun 5
First Quarter
Jun 12
Full
Jun 19
Last Quarter

Hourly Weather History & Observations

Time (MDT) Temp. Dew Point Humidity Pressure Visibility Wind Dir Wind Speed Gust Speed Precip Events Conditions
12:52 AM 73.0 °F 42.1 °F 33% 29.88 in 10.0 mi East 13.8 mph - N/A   Partly Cloudy
1:52 AM 71.1 °F 39.9 °F 32% 29.89 in 10.0 mi Calm Calm - N/A   Clear
2:52 AM 70.0 °F 41.0 °F 35% 29.88 in 10.0 mi East 8.1 mph - N/A   Clear
3:52 AM 68.0 °F 42.1 °F 39% 29.90 in 10.0 mi North 10.4 mph - N/A   Clear
4:52 AM 64.9 °F 43.0 °F 45% 29.91 in 10.0 mi North 9.2 mph - N/A   Clear
5:52 AM 64.0 °F 43.0 °F 46% 29.92 in 10.0 mi North 6.9 mph - N/A   Clear
6:52 AM 64.0 °F 44.1 °F 48% 29.93 in 10.0 mi North 10.4 mph - N/A   Partly Cloudy
7:52 AM 66.9 °F 45.0 °F 45% 29.94 in 10.0 mi NNW 8.1 mph - N/A   Partly Cloudy
8:52 AM 71.1 °F 45.0 °F 39% 29.95 in 10.0 mi North 6.9 mph - N/A   Partly Cloudy
9:52 AM 77.0 °F 45.0 °F 32% 29.94 in 10.0 mi NW 4.6 mph - N/A   Partly Cloudy
10:52 AM 81.0 °F 41.0 °F 24% 29.93 in 10.0 mi Calm Calm - N/A   Partly Cloudy
11:52 AM 82.9 °F 39.9 °F 22% 29.91 in 10.0 mi West 8.1 mph - N/A   Partly Cloudy
12:52 PM 86.0 °F 36.0 °F 17% 29.88 in 10.0 mi South 12.7 mph 16.1 mph N/A   Partly Cloudy
1:52 PM 88.0 °F 35.1 °F 15% 29.85 in 10.0 mi WSW 8.1 mph - N/A   Partly Cloudy
2:52 PM 89.1 °F 30.0 °F 12% 29.82 in 10.0 mi Variable 5.8 mph - N/A   Scattered Clouds
3:52 PM 90.0 °F 23.0 °F 9% 29.80 in 10.0 mi Variable 4.6 mph - N/A   Partly Cloudy
4:52 PM 89.1 °F 24.1 °F 9% 29.78 in 10.0 mi SSE 6.9 mph - N/A   Partly Cloudy
5:52 PM 89.1 °F 23.0 °F 9% 29.77 in 10.0 mi Variable 5.8 mph 18.4 mph N/A   Scattered Clouds
6:52 PM 89.1 °F 21.9 °F 9% 29.76 in 10.0 mi Calm Calm - N/A   Scattered Clouds
7:52 PM 86.0 °F 28.9 °F 13% 29.78 in 10.0 mi East 12.7 mph - N/A   Scattered Clouds
8:52 PM 82.0 °F 39.0 °F 22% 29.79 in 10.0 mi East 20.7 mph - N/A   Mostly Cloudy
9:52 PM 75.9 °F 45.0 °F 33% 29.82 in 10.0 mi East 26.5 mph 35.7 mph N/A   Mostly Cloudy
10:52 PM 75.0 °F 44.1 °F 33% 29.83 in 10.0 mi ESE 26.5 mph 32.2 mph N/A   Scattered Clouds
11:52 PM 75.0 °F 44.1 °F 33% 29.83 in 10.0 mi ESE 15.0 mph 32.2 mph N/A   Scattered Clouds